Terminal Aerodrome Forecast
Issued by NWS Flagstaff, AZ

Home | Current Version | Previous Version | Text Only | Print | Product List | Glossary On
Versions: 1 2 3 4 5 6 7 8 9 10 11 12 13 14 15 16 17
000
FTUS45 KFGZ 232300
TAFFLG
TAF
KFLG 232336Z 2400/2424 28013G19KT P6SM FEW250
     FM240200 VRB04KT P6SM FEW250
     FM241800 21010G18KT P6SM FEW250=

USA.gov is the U.S. government's official web portal to all federal, state and local government web resources and services.